User: anonymous   Login
Location: Waning Moon II Observatory
(30.3730°N, 89.7620°W)
Time: 16:09:03
(UTC-06:00)
Language:

Meteor 1-21 - Orbit

View from above orbital plane
View from above orbital plane
View from above satellite
View from above satellite

Ground track
Ground track

The orbit data is extracted from the following two-line orbital elements,

1 07714U 75023A   18050.16945659  .00000072  00000-0  34985-4 0  9997
2 07714  81.2103 311.1686 0030541 278.2867  81.4840 14.07964852519944
Epoch (UTC): 19 February 2018 04:04:01
Eccentricity: 0.0030541
inclination: 81.2103°
perigee height: 844 km
apogee height: 888 km
right ascension of ascending node: 311.1686°
argument of perigee: 278.2867°
revolutions per day: 14.07964852
mean anomaly at epoch: 81.4840°
orbit number at epoch: 51994

The dashed part of the orbit path shows where the satellite is in the earth's shadow,  

DLR